Weather in Dubrovno

Belarus     54°34′19″N   30°41′24″E
temp.,
°C
wind,
m/s
gust,
m/s
humid.,
%
clouds,
%
prec.,
mm/h
press.,
hPa
HPBL,
m
29 november, mon
mon2900:000ese411100100 9.6 1003378
03:00+1ese510100100 15.4 1000267
06:00+2ese38100100 0.4 999225
09:00+2ese38100100 0.6 997176
12:00+4se513100100 0.1 995337
15:00+5se613100100 0.1 991384
18:00+5se61398100 0.0 987493
21:00+5ese41099100 1.8 983310
30 november, tue
tue3000:00+4ese2499100 4.2 979122
03:00+3wsw81298100 11.1 977541
06:000wsw91595100 5.4 977641
09:00−3w101695100 7.3 978891
12:00−3w111794100 2.9 9801089
15:00−3w111894100 5.4 9831292
18:00−2w111883100 1.6 9861078
21:00−3w91681100 1.6 9881091
1 december, wed
wed100:00−3w71387100 0.0 990775
03:00−4wsw61292100 0.1 991479
06:00−5wsw5109596 0.0 992347
09:00−6wsw5119213 0.0 994321
12:00−5w5119114 0.0 995524
15:00−4w5118815 0.0 996550
18:00−6wsw410935 0.0 998200
21:00−7sw389495 0.0 999128
2 december, thu
thu200:00−5ssw4894100 0.0 998205
03:00−4s61288100 0.0 996416
06:00−3sse81696100 1.3 992655
09:000ssw81698100 3.2 990811
12:00+2sw715100100 1.1 991561
15:00+2sw714100100 1.2 991579
18:00+3sw71594100 0.1 993594
21:00+2sw8158477 0.3 994721
3 december, fri
fri300:00+1wsw81380100 0.1 9961060
03:000sw71383100 0.1 998613
06:00−1sw61289100 0.0 1000489
09:00−1sw61285100 0.0 1000537
12:00−1sw4988100 0.0 1001375
15:00−1sw3788100 0.0 1001451
18:00−1sw3793100 0.0 1002315
21:00−1sw3792100 0.0 1001347